Total_Precipitation_Accumulation
0.95 1.16 1.68 2.35 2.97 2.31 1.68 1.39 1.06 0.94 0.83 0.71 0.64 0.66 0.79 0.97 1.43 2.14 2.29 2.01 1.42 1.26 1.65 2.25 2.32 2.13 1.85 1.61 1.64 1.76 1.75 1.86 1.77 1.55 1.39 1.18 1.06 0.93 0.95 0.95 0.93 0.87 0.76 0.79 0.85 0.82 0.78 0.74 0.65
0.93 1.70 2.25 3.07 2.90 1.87 1.62 1.40 1.18 0.85 0.68 0.53 0.44 0.56 0.72 0.69 0.83 1.57 2.29 2.17 1.34 1.13 1.42 1.80 1.94 1.88 1.73 1.64 1.66 1.75 1.71 1.63 1.51 1.30 1.12 1.03 1.02 0.94 0.88 0.91 0.93 0.85 0.75 0.75 0.79 0.85 0.80 0.72 0.60
1.07 1.92 2.50 2.80 2.06 1.62 1.58 1.35 1.10 0.78 0.61 0.50 0.41 0.44 0.65 0.91 1.11 1.80 2.06 1.45 1.13 0.97 1.31 1.70 1.83 1.70 1.64 1.56 1.60 1.62 1.61 1.49 1.39 1.27 1.11 1.01 0.99 0.97 0.97 0.95 0.94 0.84 0.71 0.64 0.73 0.79 0.73 0.67 0.57
1.42 2.22 2.47 2.13 1.61 1.27 1.14 1.14 0.90 0.73 0.52 0.37 0.37 0.51 0.68 1.09 1.33 1.68 1.62 1.16 1.02 1.00 1.29 1.54 1.72 1.62 1.51 1.52 1.51 1.38 1.20 1.18 1.32 1.30 1.14 1.03 0.96 0.94 0.95 0.91 0.82 0.69 0.64 0.64 0.69 0.72 0.68 0.66 0.56
1.77 2.39 2.35 1.80 1.46 1.23 1.01 0.89 0.73 0.65 0.55 0.42 0.37 0.68 1.09 1.33 1.41 1.41 1.37 1.12 1.07 1.24 1.50 1.44 1.56 1.50 1.40 1.36 1.34 1.19 1.14 1.21 1.39 1.37 1.25 1.15 1.01 0.94 0.92 0.84 0.70 0.58 0.59 0.65 0.79 0.81 0.64 0.59 0.57
2.21 2.35 2.55 1.95 1.53 1.30 1.15 0.87 0.66 0.56 0.50 0.41 0.42 0.70 1.25 1.55 1.53 1.51 1.44 1.32 1.25 1.27 1.38 1.40 1.52 1.46 1.31 1.18 1.15 1.02 1.06 1.28 1.45 1.39 1.35 1.39 1.14 0.95 0.82 0.75 0.69 0.59 0.55 0.63 0.76 0.79 0.64 0.58 0.63
2.35 2.42 2.16 1.66 1.52 1.63 1.27 0.79 0.67 0.63 0.60 0.47 0.39 0.72 1.29 1.67 1.44 1.26 1.27 1.20 1.18 1.19 1.20 1.13 1.18 1.24 1.15 1.10 1.15 1.10 1.15 1.27 1.36 1.28 1.26 1.25 0.97 0.75 0.66 0.68 0.68 0.63 0.65 0.71 0.73 0.77 0.70 0.68 0.70
1.64 1.76 1.70 1.59 1.61 1.61 1.11 0.69 0.57 0.53 0.58 0.40 0.36 0.64 1.19 1.39 1.19 1.19 1.16 1.15 1.15 1.12 1.06 0.92 0.95 1.13 1.23 1.17 1.18 1.24 1.27 1.24 1.32 1.19 1.12 1.03 0.75 0.60 0.60 0.58 0.59 0.58 0.63 0.72 0.76 0.78 0.72 0.70 0.70
1.51 1.73 1.92 1.84 1.57 1.40 1.01 0.78 0.55 0.40 0.43 0.37 0.33 0.39 0.59 0.81 0.93 1.06 1.12 1.11 1.23 1.09 0.96 0.89 0.80 0.85 1.04 1.16 1.14 1.32 1.38 1.33 1.20 1.11 1.08 0.94 0.64 0.54 0.55 0.53 0.66 0.66 0.73 0.79 0.81 0.78 0.71 0.66 0.61
1.49 1.79 1.88 1.41 1.09 1.02 0.94 0.81 0.63 0.58 0.60 0.51 0.44 0.43 0.48 0.64 0.81 0.88 0.93 0.98 1.05 1.03 0.86 0.80 0.73 0.67 0.67 0.75 1.05 1.42 1.27 1.18 0.96 0.93 0.89 0.86 0.78 0.72 0.57 0.60 0.79 0.84 0.86 0.85 0.83 0.79 0.66 0.51 0.43
1.23 1.31 1.23 1.15 0.84 0.71 0.85 0.80 0.60 0.63 0.71 0.53 0.50 0.48 0.49 0.59 0.63 0.66 0.75 0.81 0.82 0.89 0.82 0.73 0.66 0.59 0.58 0.70 0.83 1.04 1.11 1.09 0.95 0.81 0.80 0.87 0.81 0.71 0.60 0.54 0.62 0.73 0.81 0.73 0.71 0.69 0.53 0.47 0.50
1.08 1.00 0.87 0.84 0.66 0.68 0.86 0.74 0.62 0.69 0.64 0.41 0.35 0.38 0.49 0.56 0.54 0.53 0.63 0.78 0.84 0.86 0.85 0.78 0.69 0.63 0.60 0.59 0.58 0.67 0.73 0.77 0.75 0.67 0.68 0.80 0.76 0.71 0.67 0.67 0.63 0.65 0.69 0.75 0.72 0.68 0.60 0.55 0.56
1.00 0.94 0.75 0.62 0.65 0.69 0.76 0.78 0.67 0.66 0.53 0.43 0.37 0.46 0.52 0.52 0.49 0.50 0.58 0.70 0.76 0.79 0.85 0.83 0.73 0.66 0.60 0.57 0.53 0.51 0.60 0.64 0.65 0.69 0.65 0.68 0.72 0.71 0.68 0.65 0.71 0.73 0.71 0.74 0.73 0.65 0.60 0.60 0.56
0.94 0.88 0.80 0.67 0.67 0.70 0.76 0.79 0.74 0.78 0.60 0.50 0.41 0.46 0.49 0.51 0.50 0.52 0.55 0.65 0.68 0.70 0.82 0.86 0.79 0.75 0.68 0.61 0.57 0.56 0.61 0.67 0.64 0.57 0.54 0.59 0.61 0.63 0.73 0.77 0.78 0.79 0.79 0.86 0.84 0.66 0.66 0.70 0.64
0.83 0.89 0.87 0.80 0.79 0.77 0.80 0.97 0.89 0.81 0.70 0.67 0.55 0.45 0.47 0.46 0.46 0.51 0.52 0.58 0.65 0.73 0.86 0.86 0.82 0.91 0.82 0.73 0.71 0.63 0.67 0.69 0.67 0.67 0.64 0.66 0.67 0.69 0.79 0.87 0.89 0.88 0.85 0.87 1.10 0.98 0.75 0.71 0.67
0.96 1.05 1.20 0.87 0.78 0.81 0.94 1.13 0.85 0.83 0.80 0.85 0.68 0.56 0.51 0.47 0.45 0.44 0.45 0.56 0.60 0.76 0.85 0.95 0.85 0.94 0.91 0.86 0.85 0.79 0.78 0.81 0.78 0.76 0.76 0.75 0.78 0.81 0.89 0.95 0.86 0.92 0.99 1.02 1.18 1.25 0.95 0.78 0.76
1.11 1.19 1.17 0.92 0.71 0.74 0.84 0.93 0.77 0.73 0.70 0.71 0.66 0.59 0.58 0.46 0.42 0.39 0.40 0.46 0.53 0.68 0.79 0.94 0.96 0.94 0.99 1.01 1.04 0.99 0.95 0.95 0.91 0.90 0.85 0.86 0.90 0.97 1.03 1.05 0.99 0.99 1.01 1.12 1.12 1.33 1.29 1.10 0.98
1.05 0.94 0.90 0.81 0.71 0.72 0.73 0.63 0.62 0.61 0.62 0.58 0.58 0.54 0.49 0.42 0.41 0.39 0.36 0.37 0.43 0.59 0.73 0.86 1.01 1.13 1.19 1.22 1.28 1.27 1.17 1.10 1.12 1.14 1.10 1.10 1.16 1.12 1.18 1.20 1.22 1.30 1.28 1.27 1.19 1.38 1.49 1.30 1.24
0.74 0.72 0.74 0.63 0.57 0.60 0.55 0.48 0.52 0.55 0.57 0.50 0.51 0.50 0.41 0.37 0.39 0.37 0.32 0.34 0.36 0.48 0.59 0.76 1.12 1.54 1.71 1.60 1.56 1.61 1.71 1.69 1.59 1.56 1.52 1.57 1.57 1.56 1.60 1.57 1.55 1.51 1.47 1.53 1.51 1.75 2.10 1.65 1.42
0.68 0.74 0.76 0.66 0.48 0.48 0.48 0.42 0.42 0.48 0.49 0.45 0.42 0.44 0.39 0.35 0.31 0.28 0.24 0.27 0.32 0.49 0.64 0.76 1.05 1.50 1.68 1.79 1.91 2.12 2.29 2.17 2.04 2.01 1.96 2.03 2.05 2.20 2.17 2.15 2.13 2.04 2.03 2.01 1.93 2.03 2.32 1.98 1.75
0.68 0.71 0.70 0.63 0.49 0.44 0.42 0.44 0.39 0.44 0.39 0.37 0.37 0.38 0.34 0.27 0.25 0.25 0.23 0.27 0.32 0.44 0.56 0.70 0.89 1.18 1.53 1.79 2.05 2.33 2.55 2.52 2.39 2.23 2.21 2.26 2.32 2.48 2.61 2.61 2.65 2.47 2.33 2.34 2.26 2.22 2.37 2.44 2.18
0.70 0.48 0.44 0.44 0.57 0.59 0.44 0.64 0.46 0.45 0.41 0.36 0.36 0.36 0.35 0.30 0.28 0.31 0.28 0.29 0.32 0.39 0.48 0.64 0.83 1.05 1.31 1.55 1.95 2.38 2.66 2.75 2.65 2.55 2.51 2.47 2.48 2.53 2.74 2.80 2.90 2.73 2.61 2.55 2.47 2.29 2.40 2.70 2.63
0.52 0.41 0.40 0.43 0.52 0.48 0.34 0.46 0.45 0.38 0.40 0.35 0.33 0.32 0.31 0.30 0.31 0.34 0.35 0.36 0.39 0.42 0.46 0.59 0.74 0.97 1.22 1.44 1.79 2.18 2.46 2.67 2.81 2.64 2.51 2.53 2.55 2.58 2.70 2.84 2.96 2.82 2.69 2.61 2.71 2.60 2.55 2.48 2.47
0.41 0.44 0.43 0.44 0.50 0.54 0.27 0.39 0.50 0.36 0.32 0.33 0.30 0.27 0.28 0.31 0.36 0.41 0.50 0.54 0.53 0.48 0.52 0.62 0.72 0.87 1.05 1.19 1.39 1.63 1.97 2.21 2.54 2.53 2.46 2.58 2.56 2.48 2.42 2.57 2.81 2.74 2.72 2.73 2.81 2.86 2.79 2.77 2.78
0.40 0.60 0.77 0.76 0.72 0.49 0.21 0.36 0.50 0.36 0.29 0.30 0.31 0.29 0.29 0.33 0.38 0.47 0.61 0.66 0.68 0.58 0.54 0.57 0.71 0.81 0.89 0.98 1.07 1.22 1.47 1.63 2.00 2.31 2.28 2.20 2.25 2.31 2.37 2.40 2.41 2.41 2.49 2.64 2.86 2.83 2.72 2.71 2.81
0.33 0.53 0.82 0.92 0.80 0.52 0.36 0.53 0.57 0.41 0.33 0.29 0.29 0.31 0.35 0.40 0.45 0.62 0.79 0.82 0.81 0.71 0.62 0.61 0.73 0.81 0.85 0.90 0.93 1.01 1.14 1.23 1.41 1.62 1.72 1.75 1.81 2.03 2.15 2.26 2.23 2.25 2.31 2.39 2.52 2.56 2.58 2.54 2.53
0.29 0.35 0.41 0.59 0.57 0.58 0.55 0.64 0.57 0.39 0.37 0.37 0.38 0.42 0.51 0.60 0.64 0.77 0.94 0.99 0.89 0.79 0.70 0.69 0.76 0.88 0.89 0.92 0.95 1.04 1.07 1.07 1.17 1.20 1.34 1.52 1.56 1.61 1.75 1.86 1.96 2.07 2.12 2.20 2.36 2.43 2.41 2.44 2.43
0.21 0.27 0.42 0.64 0.81 0.83 0.66 0.67 0.64 0.54 0.51 0.47 0.51 0.56 0.68 0.78 0.84 0.93 1.09 1.12 0.96 0.82 0.72 0.70 0.75 0.88 1.06 1.19 1.15 1.12 1.19 1.25 1.45 1.48 1.33 1.30 1.46 1.51 1.55 1.60 1.68 1.84 1.96 2.05 2.14 2.25 2.35 2.36 2.36
0.25 0.35 0.49 0.66 0.69 0.94 1.05 0.96 0.75 0.68 0.68 0.71 0.74 0.78 0.84 0.96 0.97 0.95 1.04 1.11 1.00 0.80 0.72 0.67 0.70 0.80 0.94 0.99 1.04 1.03 1.11 1.22 1.48 1.70 1.64 1.45 1.43 1.45 1.42 1.37 1.45 1.59 1.71 1.82 1.95 2.01 2.02 2.06 2.19
0.33 0.45 0.66 1.00 0.94 0.87 1.05 1.04 0.76 0.67 0.71 0.72 0.72 0.71 0.76 0.87 0.89 0.92 0.96 0.91 0.82 0.68 0.60 0.57 0.58 0.69 0.81 0.80 0.86 0.93 0.96 1.06 1.19 1.30 1.32 1.26 1.16 1.13 1.19 1.24 1.25 1.34 1.50 1.62 1.66 1.68 1.71 1.78 1.91